Date String (YYYY-MM-DD hh:mm:ss) UTC,Instrument flags,Ambient pressure (hPa),Sample flow (lpm),Bypass flow (lpm),Sample temperature (°C),Ambient temperature (°C),ASC tube jacket temperature (°C),LED temperature (°C),Box temperature (°C),Sample RH (%),Span deviation,Mass concentration (μg/m³),Mass concentration (μg/m³),Mass concentration (μg/m³)
DateTimeUTC,F1_M11,P_M11,Q1_M11,Q2_M11,T1_M11,T2_M11,T3_M11,T4_M11,T5_M11,U1_M11,ZSPAN_M11,X2_M11,X0_M11,X1_M11
2022-10-31 17:00:00,,0824.3,4.99,0.00,27.8,26.6,00.0,36.5,29.7,08.5,0000.0,0004.09,0009.33,0003.75
2022-10-31 17:01:00,,0824.2,5.01,0.00,27.8,26.6,00.0,36.5,29.7,08.6,0000.0,0004.08,0009.17,0003.72
2022-10-31 17:02:00,,0824.2,5.00,0.00,27.8,26.6,00.0,36.5,29.7,08.7,0000.0,0004.07,0009.07,0003.68
2022-10-31 17:03:00,,0824.2,5.01,0.00,27.8,26.7,00.0,36.6,29.7,08.8,0000.0,0004.02,0009.00,0003.64
2022-10-31 17:04:00,,0824.2,4.99,0.00,27.9,26.7,00.0,36.6,29.7,08.8,0000.0,0003.97,0009.00,0003.61
2022-10-31 17:05:00,,0824.2,5.00,0.00,27.9,26.7,00.0,36.6,29.7,08.8,0000.0,0003.91,0009.64,0003.56
2022-10-31 17:06:00,,0824.2,5.01,0.00,27.9,26.7,00.0,36.6,29.8,08.7,0000.0,0003.85,0008.43,0003.50
2022-10-31 17:07:00,,0824.2,5.00,0.00,27.9,26.7,00.0,36.6,29.8,08.5,0000.0,0003.82,0008.53,0003.46
2022-10-31 17:08:00,,0824.2,5.00,0.00,27.9,26.8,00.0,36.6,29.8,08.6,0000.0,0003.78,0008.32,0003.44
2022-10-31 17:09:00,,0824.2,5.00,0.00,28.0,26.8,00.0,36.7,29.8,08.6,0000.0,0003.75,0008.18,0003.43
2022-10-31 17:10:00,,0824.1,5.00,0.00,28.0,26.8,00.0,36.7,29.9,08.4,0000.0,0003.73,0007.86,0003.41
2022-10-31 17:11:00,,0824.2,5.00,0.00,28.0,26.8,00.0,36.7,29.9,08.4,0000.0,0003.74,0008.08,0003.39
2022-10-31 17:12:00,,0824.1,5.01,0.00,28.0,26.8,00.0,36.7,29.9,08.5,0000.0,0003.71,0009.32,0003.37
2022-10-31 17:13:00,,0824.1,4.99,0.00,28.0,26.8,00.0,36.7,29.9,08.5,0000.0,0003.70,0009.79,0003.36
2022-10-31 17:14:00,,0824.1,4.99,0.00,28.0,26.8,00.0,36.8,29.9,08.5,0000.0,0003.70,0009.96,0003.35
2022-10-31 17:15:00,,0824.1,5.01,0.00,28.1,26.9,00.0,36.8,29.9,08.5,0000.0,0003.71,0010.04,0003.34
2022-10-31 17:16:00,,0824.1,5.00,0.00,28.1,26.9,00.0,36.8,30.0,08.6,0000.0,0003.72,0009.44,0003.34
2022-10-31 17:17:00,,0824.1,5.00,0.00,28.1,26.9,00.0,36.8,30.0,08.5,0000.0,0003.69,0009.37,0003.33
2022-10-31 17:18:00,,0824.1,5.00,0.00,28.1,26.9,00.0,36.8,30.0,08.5,0000.0,0003.67,0009.00,0003.33
2022-10-31 17:19:00,,0824.1,4.99,0.00,28.1,27.0,00.0,36.8,30.0,08.5,0000.0,0003.69,0009.13,0003.33
2022-10-31 17:20:00,,0824.1,5.00,0.00,28.2,27.0,00.0,36.8,30.1,08.5,0000.0,0003.69,0009.16,0003.32
2022-10-31 17:21:00,,0824.1,5.00,0.00,28.2,27.0,00.0,36.9,30.1,08.5,0000.0,0003.68,0009.13,0003.32
2022-10-31 17:22:00,,0824.1,5.00,0.00,28.2,27.0,00.0,36.9,30.1,08.6,0000.0,0003.70,0008.91,0003.34
2022-10-31 17:23:00,,0824.1,5.00,0.00,28.2,27.0,00.0,36.9,30.1,08.6,0000.0,0003.72,0007.63,0003.34
2022-10-31 17:24:00,,0824.1,5.00,0.00,28.2,27.1,00.0,36.9,30.1,08.7,0000.0,0003.74,0006.95,0003.36
2022-10-31 17:25:00,,0824.1,5.00,0.00,28.3,27.1,00.0,36.9,30.1,08.6,0000.0,0003.72,0006.76,0003.35
2022-10-31 17:26:00,,0824.1,5.00,0.00,28.3,27.1,00.0,37.0,30.1,08.6,0000.0,0003.72,0007.29,0003.35
2022-10-31 17:27:00,,0824.1,5.00,0.00,28.3,27.1,00.0,37.0,30.1,08.6,0000.0,0003.72,0007.24,0003.34
2022-10-31 17:28:00,,0824.1,4.99,0.00,28.3,27.1,00.0,37.0,30.1,08.7,0000.0,0003.74,0008.03,0003.34
2022-10-31 17:29:00,,0824.1,5.00,0.00,28.3,27.2,00.0,37.0,30.2,08.6,0000.0,0003.78,0008.09,0003.34
2022-10-31 17:30:00,,0824.1,5.01,0.00,28.3,27.2,00.0,37.0,30.2,08.4,0000.0,0003.82,0008.27,0003.34
2022-10-31 17:31:00,,0824.1,5.00,0.00,28.4,27.2,00.0,37.0,30.3,08.4,0000.0,0003.83,0008.28,0003.35
2022-10-31 17:32:00,,0824.0,5.00,0.00,28.4,27.2,00.0,37.1,30.3,08.6,0000.0,0003.87,0008.38,0003.36
2022-10-31 17:33:00,,0824.0,5.01,0.00,28.4,27.2,00.0,37.1,30.3,08.8,0000.0,0003.89,0008.47,0003.36
2022-10-31 17:34:00,,0824.0,4.98,0.00,28.4,27.2,00.0,37.1,30.3,08.8,0000.0,0003.90,0008.48,0003.37
2022-10-31 17:35:00,,0824.0,5.00,0.00,28.4,27.3,00.0,37.1,30.3,08.7,0000.0,0003.90,0008.74,0003.37
2022-10-31 17:36:00,,0824.0,5.01,0.00,28.5,27.3,00.0,37.2,30.3,08.9,0000.0,0003.90,0009.24,0003.37
2022-10-31 17:37:00,,0824.0,5.00,0.00,28.5,27.3,00.0,37.2,30.3,09.1,0000.0,0003.86,0009.05,0003.38
2022-10-31 17:38:00,,0824.0,5.00,0.00,28.5,27.3,00.0,37.2,30.4,08.9,0000.0,0003.85,0009.27,0003.39
2022-10-31 17:39:00,,0824.0,5.00,0.00,28.5,27.3,00.0,37.2,30.4,09.0,0000.0,0003.85,0008.74,0003.40
2022-10-31 17:40:00,,0824.0,5.01,0.00,28.5,27.4,00.0,37.2,30.4,09.1,0000.0,0003.82,0008.57,0003.39
2022-10-31 17:41:00,,0823.9,4.98,0.00,28.6,27.4,00.0,37.3,30.4,09.1,0000.0,0003.79,0008.37,0003.40
2022-10-31 17:42:00,,0824.0,5.02,0.00,28.6,27.4,00.0,37.3,30.4,09.1,0000.0,0003.94,0009.51,0003.42
2022-10-31 17:43:00,,0824.0,5.00,0.00,28.6,27.4,00.0,37.3,30.4,09.1,0000.0,0003.94,0009.54,0003.43
2022-10-31 17:44:00,,0824.0,5.00,0.00,28.6,27.4,00.0,37.3,30.4,09.2,0000.0,0003.93,0009.53,0003.43
2022-10-31 17:45:00,,0824.0,5.01,0.00,28.6,27.4,00.0,37.3,30.4,09.2,0000.0,0003.90,0009.97,0003.42
2022-10-31 17:46:00,,0824.0,4.98,0.00,28.6,27.4,00.0,37.3,30.4,09.4,0000.0,0003.88,0009.72,0003.41
2022-10-31 17:47:00,,0823.9,5.00,0.00,28.6,27.4,00.0,37.4,30.5,09.3,0000.0,0003.89,0009.20,0003.41
2022-10-31 17:48:00,,0823.9,5.00,0.00,28.7,27.5,00.0,37.4,30.5,09.3,0000.0,0003.93,0009.40,0003.41
2022-10-31 17:49:00,,0823.9,5.02,0.00,28.7,27.5,00.0,37.4,30.5,09.3,0000.0,0003.97,0009.48,0003.41
2022-10-31 17:50:00,,0823.9,4.97,0.00,28.7,27.5,00.0,37.4,30.5,09.5,0000.0,0003.98,0010.08,0003.41
2022-10-31 17:51:00,,0823.9,5.00,0.00,28.7,27.5,00.0,37.4,30.6,09.3,0000.0,0004.01,0010.13,0003.42
2022-10-31 17:52:00,,0823.8,5.01,0.00,28.7,27.5,00.0,37.4,30.6,09.3,0000.0,0004.02,0010.14,0003.42
2022-10-31 17:53:00,,0823.8,5.00,0.00,28.7,27.6,00.0,37.5,30.6,09.4,0000.0,0003.89,0009.48,0003.39
2022-10-31 17:54:00,,0823.8,5.00,0.00,28.8,27.6,00.0,37.5,30.6,09.4,0000.0,0003.90,0010.37,0003.39
2022-10-31 17:55:00,,0823.8,5.01,0.00,28.8,27.6,00.0,37.5,30.6,09.7,0000.0,0003.91,0010.84,0003.40
2022-10-31 17:56:00,,0823.8,5.00,0.00,28.8,27.6,00.0,37.5,30.6,09.7,0000.0,0003.91,0010.86,0003.41
2022-10-31 17:57:00,,0823.8,5.00,0.00,28.8,27.6,00.0,37.5,30.7,09.5,0000.0,0003.91,0010.98,0003.41
2022-10-31 17:58:00,,0823.7,5.00,0.00,28.8,27.7,00.0,37.6,30.7,09.5,0000.0,0003.92,0011.29,0003.42
2022-10-31 17:59:00,,0823.8,5.00,0.00,28.9,27.7,00.0,37.6,30.7,09.5,0000.0,0003.91,0011.19,0003.42
